﻿測定場所 (Monitoring sites),日付 (Measurement date),時間 (Measurement time),線量率 最大値 (max) μGy/h,線量率 最小値 (min) μGy/h,線量率 平均値 (average) μGy/h,
足立 (Adachi),2012-12-16,23:01～24:00,0.0604,0.0536,0.0571,
足立 (Adachi),2012-12-16,22:01～23:00,0.0600,0.0532,0.0570,
足立 (Adachi),2012-12-16,21:01～22:00,0.0609,0.0545,0.0577,
足立 (Adachi),2012-12-16,20:01～21:00,0.0621,0.0548,0.0572,
足立 (Adachi),2012-12-16,19:01～20:00,0.0604,0.0540,0.0574,
足立 (Adachi),2012-12-16,18:01～19:00,0.0620,0.0539,0.0574,
足立 (Adachi),2012-12-16,17:01～18:00,0.0618,0.0535,0.0571,
足立 (Adachi),2012-12-16,16:01～17:00,0.0605,0.0535,0.0571,
足立 (Adachi),2012-12-16,15:01～16:00,0.0606,0.0538,0.0570,
足立 (Adachi),2012-12-16,14:01～15:00,0.0601,0.0545,0.0572,
足立 (Adachi),2012-12-16,13:01～14:00,0.0613,0.0543,0.0573,
足立 (Adachi),2012-12-16,12:01～13:00,0.0606,0.0547,0.0573,
足立 (Adachi),2012-12-16,11:01～12:00,0.0606,0.0528,0.0574,
足立 (Adachi),2012-12-16,10:01～11:00,0.0602,0.0534,0.0568,
足立 (Adachi),2012-12-16,09:01～10:00,0.0600,0.0532,0.0567,
足立 (Adachi),2012-12-16,08:01～09:00,0.0595,0.0534,0.0566,
足立 (Adachi),2012-12-16,07:01～08:00,0.0593,0.0519,0.0559,
足立 (Adachi),2012-12-16,06:01～07:00,0.0612,0.0543,0.0574,
足立 (Adachi),2012-12-16,05:01～06:00,0.0627,0.0555,0.0582,
足立 (Adachi),2012-12-16,04:01～05:00,0.0665,0.0557,0.0600,
足立 (Adachi),2012-12-16,03:01～04:00,0.0683,0.0591,0.0638,
足立 (Adachi),2012-12-16,02:01～03:00,0.0719,0.0624,0.0669,
足立 (Adachi),2012-12-16,01:01～02:00,0.0739,0.0574,0.0677,
足立 (Adachi),2012-12-16,00:01～01:00,0.0621,0.0549,0.0577,
足立 (Adachi),2012-12-15,23:01～24:00,0.0613,0.0527,0.0573,
足立 (Adachi),2012-12-15,22:01～23:00,0.0611,0.0553,0.0574,
足立 (Adachi),2012-12-15,21:01～22:00,0.0599,0.0545,0.0572,
足立 (Adachi),2012-12-15,20:01～21:00,0.0606,0.0537,0.0574,
足立 (Adachi),2012-12-15,19:01～20:00,0.0618,0.0534,0.0575,
足立 (Adachi),2012-12-15,18:01～19:00,0.0611,0.0546,0.0574,
足立 (Adachi),2012-12-15,17:01～18:00,0.0608,0.0525,0.0566,
足立 (Adachi),2012-12-15,16:01～17:00,0.0617,0.0534,0.0582,
足立 (Adachi),2012-12-15,15:01～16:00,0.0639,0.0560,0.0597,
足立 (Adachi),2012-12-15,14:01～15:00,0.0641,0.0568,0.0607,
足立 (Adachi),2012-12-15,13:01～14:00,0.0636,0.0566,0.0611,
足立 (Adachi),2012-12-15,12:01～13:00,0.0619,0.0548,0.0593,
足立 (Adachi),2012-12-15,11:01～12:00,0.0617,0.0549,0.0588,
足立 (Adachi),2012-12-15,10:01～11:00,0.0616,0.0557,0.0589,
足立 (Adachi),2012-12-15,09:01～10:00,0.0611,0.0558,0.0589,
足立 (Adachi),2012-12-15,08:01～09:00,0.0643,0.0545,0.0585,
足立 (Adachi),2012-12-15,07:01～08:00,0.0598,0.0530,0.0570,
足立 (Adachi),2012-12-15,06:01～07:00,0.0610,0.0539,0.0578,
足立 (Adachi),2012-12-15,05:01～06:00,0.0624,0.0546,0.0585,
足立 (Adachi),2012-12-15,04:01～05:00,0.0631,0.0559,0.0594,
足立 (Adachi),2012-12-15,03:01～04:00,0.0667,0.0576,0.0627,
足立 (Adachi),2012-12-15,02:01～03:00,0.0676,0.0598,0.0634,
足立 (Adachi),2012-12-15,01:01～02:00,0.0641,0.0556,0.0598,
足立 (Adachi),2012-12-15,00:01～01:00,0.0634,0.0549,0.0584,
足立 (Adachi),2012-12-14,23:01～24:00,0.0617,0.0539,0.0584,
足立 (Adachi),2012-12-14,22:01～23:00,0.0611,0.0550,0.0577,
足立 (Adachi),2012-12-14,21:01～22:00,0.0612,0.0551,0.0581,
足立 (Adachi),2012-12-14,20:01～21:00,0.0616,0.0552,0.0578,
足立 (Adachi),2012-12-14,19:01～20:00,0.0610,0.0543,0.0575,
足立 (Adachi),2012-12-14,18:01～19:00,0.0610,0.0550,0.0573,
足立 (Adachi),2012-12-14,17:01～18:00,0.0610,0.0541,0.0570,
足立 (Adachi),2012-12-14,16:01～17:00,0.0602,0.0526,0.0568,
足立 (Adachi),2012-12-14,15:01～16:00,0.0608,0.0535,0.0570,
足立 (Adachi),2012-12-14,14:01～15:00,0.0596,0.0538,0.0569,
足立 (Adachi),2012-12-14,13:01～14:00,0.0608,0.0538,0.0578,
足立 (Adachi),2012-12-14,12:01～13:00,0.0610,0.0539,0.0575,
足立 (Adachi),2012-12-14,11:01～12:00,0.0608,0.0544,0.0573,
足立 (Adachi),2012-12-14,10:01～11:00,0.0607,0.0541,0.0574,
足立 (Adachi),2012-12-14,09:01～10:00,0.0609,0.0537,0.0573,
足立 (Adachi),2012-12-14,08:01～09:00,0.0639,0.0540,0.0576,
足立 (Adachi),2012-12-14,07:01～08:00,0.0604,0.0530,0.0568,
足立 (Adachi),2012-12-14,06:01～07:00,0.0585,0.0532,0.0563,
足立 (Adachi),2012-12-14,05:01～06:00,0.0596,0.0523,0.0567,
足立 (Adachi),2012-12-14,04:01～05:00,0.0609,0.0537,0.0570,
足立 (Adachi),2012-12-14,03:01～04:00,0.0606,0.0529,0.0568,
足立 (Adachi),2012-12-14,02:01～03:00,0.0602,0.0511,0.0566,
足立 (Adachi),2012-12-14,01:01～02:00,0.0607,0.0539,0.0570,
足立 (Adachi),2012-12-14,00:01～01:00,0.0601,0.0543,0.0570,
足立 (Adachi),2012-12-13,23:01～24:00,0.0599,0.0539,0.0571,
足立 (Adachi),2012-12-13,22:01～23:00,0.0598,0.0535,0.0567,
足立 (Adachi),2012-12-13,21:01～22:00,0.0608,0.0540,0.0566,
足立 (Adachi),2012-12-13,20:01～21:00,0.0601,0.0528,0.0565,
足立 (Adachi),2012-12-13,19:01～20:00,0.0600,0.0529,0.0569,
足立 (Adachi),2012-12-13,18:01～19:00,0.0593,0.0520,0.0561,
足立 (Adachi),2012-12-13,17:01～18:00,0.0596,0.0520,0.0564,
足立 (Adachi),2012-12-13,16:01～17:00,0.0612,0.0534,0.0563,
足立 (Adachi),2012-12-13,15:01～16:00,0.0595,0.0528,0.0563,
足立 (Adachi),2012-12-13,14:01～15:00,0.0584,0.0525,0.0561,
足立 (Adachi),2012-12-13,13:01～14:00,0.0591,0.0529,0.0558,
足立 (Adachi),2012-12-13,12:01～13:00,0.0605,0.0534,0.0563,
足立 (Adachi),2012-12-13,11:01～12:00,0.0605,0.0535,0.0568,
足立 (Adachi),2012-12-13,10:01～11:00,0.0606,0.0518,0.0566,
足立 (Adachi),2012-12-13,09:01～10:00,0.0604,0.0535,0.0569,
足立 (Adachi),2012-12-13,08:01～09:00,0.0593,0.0517,0.0566,
足立 (Adachi),2012-12-13,07:01～08:00,0.0587,0.0522,0.0555,
足立 (Adachi),2012-12-13,06:01～07:00,0.0609,0.0531,0.0564,
足立 (Adachi),2012-12-13,05:01～06:00,0.0609,0.0537,0.0575,
足立 (Adachi),2012-12-13,04:01～05:00,0.0609,0.0536,0.0568,
足立 (Adachi),2012-12-13,03:01～04:00,0.0598,0.0536,0.0565,
足立 (Adachi),2012-12-13,02:01～03:00,0.0604,0.0536,0.0571,
足立 (Adachi),2012-12-13,01:01～02:00,0.0597,0.0530,0.0568,
足立 (Adachi),2012-12-13,00:01～01:00,0.0598,0.0535,0.0566,
足立 (Adachi),2012-12-12,23:01～24:00,0.0603,0.0539,0.0572,
足立 (Adachi),2012-12-12,22:01～23:00,0.0601,0.0542,0.0571,
足立 (Adachi),2012-12-12,21:01～22:00,0.0605,0.0538,0.0568,
足立 (Adachi),2012-12-12,20:01～21:00,0.0597,0.0540,0.0567,
足立 (Adachi),2012-12-12,19:01～20:00,0.0611,0.0542,0.0567,
足立 (Adachi),2012-12-12,18:01～19:00,0.0610,0.0529,0.0563,
足立 (Adachi),2012-12-12,17:01～18:00,0.0613,0.0533,0.0567,
足立 (Adachi),2012-12-12,16:01～17:00,0.0619,0.0540,0.0566,
足立 (Adachi),2012-12-12,15:01～16:00,0.0597,0.0538,0.0568,
足立 (Adachi),2012-12-12,14:01～15:00,0.0600,0.0532,0.0568,
足立 (Adachi),2012-12-12,13:01～14:00,0.0600,0.0520,0.0562,
足立 (Adachi),2012-12-12,12:01～13:00,0.0599,0.0512,0.0568,
足立 (Adachi),2012-12-12,11:01～12:00,0.0599,0.0537,0.0568,
足立 (Adachi),2012-12-12,10:01～11:00,0.0596,0.0527,0.0566,
足立 (Adachi),2012-12-12,09:01～10:00,0.0602,0.0537,0.0571,
足立 (Adachi),2012-12-12,08:01～09:00,0.0608,0.0526,0.0573,
足立 (Adachi),2012-12-12,07:01～08:00,0.0600,0.0534,0.0568,
足立 (Adachi),2012-12-12,06:01～07:00,0.0613,0.0525,0.0568,
足立 (Adachi),2012-12-12,05:01～06:00,0.0602,0.0540,0.0574,
足立 (Adachi),2012-12-12,04:01～05:00,0.0607,0.0530,0.0573,
足立 (Adachi),2012-12-12,03:01～04:00,0.0611,0.0539,0.0574,
足立 (Adachi),2012-12-12,02:01～03:00,0.0631,0.0535,0.0573,
足立 (Adachi),2012-12-12,01:01～02:00,0.0598,0.0542,0.0574,
足立 (Adachi),2012-12-12,00:01～01:00,0.0618,0.0546,0.0577,
足立 (Adachi),2012-12-11,23:01～24:00,0.0616,0.0543,0.0576,
足立 (Adachi),2012-12-11,22:01～23:00,0.0609,0.0544,0.0574,
足立 (Adachi),2012-12-11,21:01～22:00,0.0602,0.0547,0.0574,
足立 (Adachi),2012-12-11,20:01～21:00,0.0605,0.0532,0.0569,
足立 (Adachi),2012-12-11,19:01～20:00,0.0618,0.0523,0.0568,
足立 (Adachi),2012-12-11,18:01～19:00,0.0604,0.0531,0.0568,
足立 (Adachi),2012-12-11,17:01～18:00,0.0597,0.0531,0.0565,
足立 (Adachi),2012-12-11,16:01～17:00,0.0603,0.0526,0.0563,
足立 (Adachi),2012-12-11,15:01～16:00,0.0604,0.0543,0.0572,
足立 (Adachi),2012-12-11,14:01～15:00,0.0598,0.0536,0.0569,
足立 (Adachi),2012-12-11,13:01～14:00,0.0606,0.0541,0.0573,
足立 (Adachi),2012-12-11,12:01～13:00,0.0607,0.0543,0.0579,
足立 (Adachi),2012-12-11,11:01～12:00,0.0613,0.0538,0.0574,
足立 (Adachi),2012-12-11,10:01～11:00,0.0605,0.0533,0.0572,
足立 (Adachi),2012-12-11,09:01～10:00,0.0601,0.0535,0.0574,
足立 (Adachi),2012-12-11,08:01～09:00,0.0615,0.0536,0.0577,
足立 (Adachi),2012-12-11,07:01～08:00,0.0614,0.0545,0.0574,
足立 (Adachi),2012-12-11,06:01～07:00,0.0603,0.0531,0.0572,
足立 (Adachi),2012-12-11,05:01～06:00,0.0613,0.0526,0.0576,
足立 (Adachi),2012-12-11,04:01～05:00,0.0601,0.0538,0.0576,
足立 (Adachi),2012-12-11,03:01～04:00,0.0617,0.0546,0.0578,
足立 (Adachi),2012-12-11,02:01～03:00,0.0616,0.0552,0.0580,
足立 (Adachi),2012-12-11,01:01～02:00,0.0602,0.0534,0.0574,
足立 (Adachi),2012-12-11,00:01～01:00,0.0602,0.0541,0.0576,
足立 (Adachi),2012-12-10,23:01～24:00,0.0611,0.0531,0.0581,
足立 (Adachi),2012-12-10,22:01～23:00,0.0618,0.0550,0.0580,
足立 (Adachi),2012-12-10,21:01～22:00,0.0605,0.0547,0.0578,
足立 (Adachi),2012-12-10,20:01～21:00,0.0607,0.0548,0.0576,
足立 (Adachi),2012-12-10,19:01～20:00,0.0605,0.0543,0.0575,
足立 (Adachi),2012-12-10,18:01～19:00,0.0617,0.0540,0.0572,
足立 (Adachi),2012-12-10,17:01～18:00,0.0607,0.0530,0.0575,
足立 (Adachi),2012-12-10,16:01～17:00,0.0615,0.0535,0.0575,
足立 (Adachi),2012-12-10,15:01～16:00,0.0619,0.0536,0.0575,
足立 (Adachi),2012-12-10,14:01～15:00,0.0609,0.0547,0.0582,
足立 (Adachi),2012-12-10,13:01～14:00,0.0608,0.0545,0.0576,
足立 (Adachi),2012-12-10,12:01～13:00,0.0609,0.0530,0.0574,
足立 (Adachi),2012-12-10,11:01～12:00,0.0608,0.0547,0.0577,
足立 (Adachi),2012-12-10,10:01～11:00,0.0606,0.0548,0.0580,
足立 (Adachi),2012-12-10,09:01～10:00,0.0605,0.0545,0.0572,
足立 (Adachi),2012-12-10,08:01～09:00,0.0610,0.0548,0.0574,
足立 (Adachi),2012-12-10,07:01～08:00,0.0604,0.0532,0.0567,
足立 (Adachi),2012-12-10,06:01～07:00,0.0596,0.0532,0.0561,
足立 (Adachi),2012-12-10,05:01～06:00,0.0613,0.0535,0.0571,
足立 (Adachi),2012-12-10,04:01～05:00,0.0621,0.0539,0.0575,
足立 (Adachi),2012-12-10,03:01～04:00,0.0614,0.0537,0.0573,
足立 (Adachi),2012-12-10,02:01～03:00,0.0615,0.0540,0.0572,
足立 (Adachi),2012-12-10,01:01～02:00,0.0603,0.0539,0.0570,
足立 (Adachi),2012-12-10,00:01～01:00,0.0610,0.0539,0.0570,
